Weather reports worldwide

Advertisment
S. Maria Di Leuca, Italy (16360): temperature & dewpoint: 17.03.2019 10:00:00 - 23.03.2019 10:00:00 (CET)S. Maria Di Leuca, Italy (16360): wind speed: 17.03.2019 10:00:00 - 23.03.2019 10:00:00 (CET)S. Maria Di Leuca, Italy (16360): wind direction: 17.03.2019 10:00:00 - 23.03.2019 10:00:00 (CET)S. Maria Di Leuca, Italy (16360): reduced air pressure: 17.03.2019 10:00:00 - 23.03.2019 10:00:00 (CET)S. Maria Di Leuca, Italy (16360): visibility: 17.03.2019 10:00:00 - 23.03.2019 10:00:00 (CET)S. Maria Di Leuca, Italy (16360): sunshine duration: 17.03.2019 10:00:00 - 23.03.2019 10:00:00 (CET)
Date & Time tt [°C] td [°C] ff [km/h] ff [kn] dd ppp [hPa] vv [km] sd [min]
23.03.2019 10:00:00 15,4 8,6 4 2 NNE 1020,2 12 60
23.03.2019 09:00:00 14,2 11,0 11 6 NNE 1020,0 10 60
23.03.2019 08:00:00 13,2 10,2 15 8 N 1019,9 12 54
23.03.2019 07:00:00 10,8 7,9 21 11 N 1019,6 12 0
23.03.2019 06:00:00 11,0 8,1 24 13 NNE 1019,6 10 0
23.03.2019 05:00:00 11,0 8,1 28 15 NNE 1019,6 10 -
23.03.2019 04:00:00 11,2 8,2 26 14 NNE 1019,9 10 -
23.03.2019 03:00:00 11,4 8,8 28 15 N 1020,1 10 -
23.03.2019 02:00:00 11,6 9,4 26 14 NNE 1020,6 10 -
23.03.2019 01:00:00 12,8 11,2 28 15 N 1020,5 10 -
23.03.2019 00:00:00 12,8 11,5 28 15 NNE 1020,5 10 -
22.03.2019 23:00:00 12,8 11,7 28 15 N 1020,7 10 -
22.03.2019 22:00:00 13,0 11,4 26 14 N 1021,5 10 -
22.03.2019 21:00:00 13,2 10,4 28 15 N 1021,5 10 -
22.03.2019 20:00:00 13,2 9,5 24 13 NNE 1021,6 10 -
22.03.2019 19:00:00 14,4 10,8 18 10 NNE 1021,5 10 0
22.03.2019 18:00:00 15,4 11,6 18 10 N 1021,4 10 0
22.03.2019 17:00:00 16,4 8,6 18 10 NNE 1022,4 10 60
22.03.2019 16:00:00 17,0 9,7 16 9 NE 1021,3 10 60
22.03.2019 15:00:00 17,6 11,0 11 6 E 1022,3 10 60
22.03.2019 14:00:00 17,4 13,5 5 3 ESE 1022,9 10 60
22.03.2019 13:00:00 17,4 13,9 4 2 WNW 1023,4 10 60
22.03.2019 12:00:00 17,2 14,5 8 4 SW 1024,0 10 60
22.03.2019 11:00:00 16,4 13,7 9 5 W 1024,0 15 60
22.03.2019 10:00:00 15,6 8,8 11 6 E 1023,9 15 60
22.03.2019 09:00:00 14,6 11,9 8 4 NE 1024,1 10 -
22.03.2019 08:00:00 13,4 11,1 5 3 NNE 1024,1 10 60
22.03.2019 07:00:00 11,0 8,6 11 6 N 1023,7 10 0
22.03.2019 06:00:00 12,0 9,9 11 6 N 1023,3 10 -
22.03.2019 05:00:00 12,4 10,3 9 5 N 1023,2 10 -
22.03.2019 04:00:00 12,4 10,3 9 5 N 1023,2 10 -
22.03.2019 03:00:00 12,4 10,3 18 10 NNE 1023,2 10 -
22.03.2019 02:00:00 12,4 10,3 18 10 NNE 1023,2 10 -
22.03.2019 01:00:00 12,4 10,3 16 9 NNE 1023,1 10 -
22.03.2019 00:00:00 14,0 11,5 18 10 N 1022,0 10 -
21.03.2019 23:00:00 14,0 11,5 21 11 NNE 1022,0 10 -
21.03.2019 22:00:00 14,0 11,5 24 13 NNE 1021,8 10 -
21.03.2019 21:00:00 14,0 11,5 28 15 NNE 1021,6 10 -
21.03.2019 20:00:00 14,2 11,7 26 14 N 1021,6 10 -
21.03.2019 19:00:00 14,4 11,9 22 12 N 1021,6 10 -
21.03.2019 18:00:00 16,0 13,7 4 2 NW 1021,5 10 0
21.03.2019 17:00:00 16,6 11,5 8 4 N 1021,5 10 60
21.03.2019 16:00:00 17,0 11,1 8 4 WSW 1021,5 15 60
21.03.2019 15:00:00 18,0 10,9 11 6 WSW 1021,4 10 60
21.03.2019 14:00:00 19,0 10,0 5 3 WSW 1022,4 10 60
21.03.2019 13:00:00 19,0 9,5 5 3 WSW 1022,4 15 60
21.03.2019 12:00:00 18,0 8,0 5 3 ESE 1022,4 15 60
21.03.2019 11:00:00 18,0 10,1 8 4 S 1022,4 10 60
21.03.2019 10:00:00 14,0 10,2 15 8 NNE 1022,6 10 60
21.03.2019 09:00:00 13,0 10,0 13 7 NNE 1022,5 10 60
21.03.2019 08:00:00 12,4 9,6 18 10 N 1022,5 10 60
21.03.2019 07:00:00 11,0 8,4 22 12 NNE 1022,0 10 0
21.03.2019 06:00:00 10,2 7,8 24 13 NNE 1021,3 10 -
21.03.2019 05:00:00 10,4 8,0 26 14 NNE 1021,2 10 -
21.03.2019 04:00:00 10,6 8,2 29 16 NNE 1021,0 12 -
21.03.2019 03:00:00 10,8 8,5 31 17 NNE 1021,3 12 -
21.03.2019 02:00:00 10,8 8,7 31 17 NNE 1021,4 10 -
21.03.2019 01:00:00 11,0 8,6 35 19 NNE 1021,3 10 -
21.03.2019 00:00:00 11,0 8,6 34 18 NNE 1021,3 10 -
20.03.2019 23:00:00 11,0 8,7 34 18 NNE 1021,3 10 -
20.03.2019 22:00:00 11,2 9,0 29 16 NNE 1020,8 10 -
20.03.2019 21:00:00 11,4 9,3 31 17 NNE 1020,6 10 -
20.03.2019 20:00:00 12,0 10,3 37 20 NNE 1020,6 10 -
20.03.2019 19:00:00 12,6 10,5 31 17 NNE 1019,5 10 -
20.03.2019 18:00:00 13,0 10,9 29 16 NNE 1018,4 10 0
20.03.2019 17:00:00 13,6 11,5 31 17 N 1018,3 10 12
20.03.2019 16:00:00 15,0 11,4 28 15 NNE 1018,1 10 0
20.03.2019 15:00:00 15,0 11,4 26 14 NNE 1018,1 10 12
20.03.2019 14:00:00 15,2 11,6 35 19 NNE 1018,1 10 48
20.03.2019 13:00:00 14,0 10,4 35 19 NE 1018,2 10 24
20.03.2019 12:00:00 14,2 11,2 24 13 NNE 1019,5 10 18
20.03.2019 11:00:00 14,2 11,2 28 15 NNE 1019,4 10 42
20.03.2019 10:00:00 14,0 11,0 34 18 NNE 1019,3 10 54
20.03.2019 09:00:00 11,6 8,8 31 17 NNE 1019,0 10 18
20.03.2019 08:00:00 11,6 8,8 28 15 NNE 1019,0 10 18
20.03.2019 07:00:00 11,4 8,6 26 14 NNE 1018,9 10 0
20.03.2019 06:00:00 10,2 7,6 24 13 NNE 1018,7 8 -
20.03.2019 05:00:00 10,6 7,8 22 12 N 1018,6 4,0 -
20.03.2019 04:00:00 10,6 7,8 22 12 N 1018,7 4,0 -
20.03.2019 03:00:00 10,8 8,0 15 8 N 1018,8 10 -
20.03.2019 02:00:00 11,0 8,4 13 7 N 1018,8 10 -
20.03.2019 01:00:00 11,2 8,6 11 6 N 1018,7 10 -
20.03.2019 00:00:00 12,0 9,4 9 5 NNE 1018,6 10 -
19.03.2019 23:00:00 12,4 9,8 9 5 N 1018,6 10 -
19.03.2019 22:00:00 12,8 10,4 5 3 NNE 1018,4 10 -
19.03.2019 21:00:00 13,0 10,5 5 3 NE 1017,8 12 -
19.03.2019 20:00:00 13,2 10,7 5 3 ENE 1017,5 10 -
19.03.2019 19:00:00 13,8 11,3 4 2 E 1016,9 12 0
19.03.2019 18:00:00 14,0 11,5 5 3 SE 1016,4 10 48
19.03.2019 17:00:00 14,2 11,7 9 5 SE 1016,3 12 30
19.03.2019 16:00:00 14,4 11,9 9 5 SSE 1015,9 10 12
19.03.2019 15:00:00 14,4 11,7 11 6 SSE 1015,9 10 42
19.03.2019 14:00:00 14,6 12,1 16 9 S 1015,9 10 60
19.03.2019 13:00:00 14,6 12,1 15 8 SSE 1016,2 10 48
19.03.2019 12:00:00 14,6 12,1 16 9 SSE 1016,2 10 60
19.03.2019 11:00:00 14,8 12,1 13 7 SSE 1016,2 12 60
19.03.2019 10:00:00 13,8 10,8 11 6 SSE 1016,3 10 12
19.03.2019 09:00:00 13,6 11,0 15 8 SSE 1016,3 10 0
19.03.2019 08:00:00 13,4 10,8 13 7 SSE 1015,9 10 0
19.03.2019 07:00:00 13,2 10,6 11 6 SE 1015,6 10 6
19.03.2019 06:00:00 13,0 10,4 11 6 SSE 1015,5 10 -
19.03.2019 05:00:00 13,0 10,5 11 6 S 1015,6 10 -
19.03.2019 04:00:00 13,0 10,5 11 6 S 1015,6 10 -
19.03.2019 03:00:00 13,0 10,5 13 7 S 1015,5 10 -
19.03.2019 02:00:00 13,0 10,5 13 7 S 1015,5 10 -
19.03.2019 01:00:00 13,0 10,5 13 7 S 1015,5 10 -
19.03.2019 00:00:00 13,0 10,5 15 8 S 1015,6 10 -
18.03.2019 23:00:00 13,0 10,5 15 8 S 1015,6 10 -
18.03.2019 22:00:00 13,0 10,5 15 8 SSE 1015,6 10 -
18.03.2019 21:00:00 13,2 10,7 15 8 E 1015,5 10 -
18.03.2019 20:00:00 13,2 10,7 16 9 S 1015,3 10 -
18.03.2019 19:00:00 13,2 10,7 16 9 S 1015,4 10 0
18.03.2019 18:00:00 13,4 10,9 18 10 SSE 1015,0 10 12
18.03.2019 17:00:00 14,0 11,7 18 10 S 1014,8 10 60
18.03.2019 16:00:00 14,2 11,9 18 10 SSE 1014,8 10 48
18.03.2019 15:00:00 14,2 11,9 18 10 SSE 1015,0 10 48
18.03.2019 14:00:00 14,4 11,9 18 10 SSE 1015,1 10 36
18.03.2019 13:00:00 14,4 12,1 18 10 S 1015,6 10 48
18.03.2019 12:00:00 14,0 11,9 16 9 S 1015,8 10 48
18.03.2019 11:00:00 14,0 11,9 16 9 S 1015,7 10 12
18.03.2019 10:00:00 13,4 10,9 18 10 S 1015,6 10 0
18.03.2019 09:00:00 13,4 10,8 21 11 S 1015,2 10 0
18.03.2019 08:00:00 13,2 10,7 18 10 S 1015,2 10 0
18.03.2019 07:00:00 13,4 10,9 18 10 S 1015,2 10 0
18.03.2019 06:00:00 13,0 10,5 15 8 SW 1014,5 10 -
18.03.2019 05:00:00 12,8 10,4 16 9 SSE 1014,5 10 -
18.03.2019 04:00:00 12,8 10,2 15 8 S 1015,3 10 -
18.03.2019 03:00:00 12,8 10,2 16 9 ESE 1015,3 10 -
18.03.2019 02:00:00 12,8 10,5 16 9 S 1015,3 10 -
18.03.2019 01:00:00 12,8 10,5 16 9 SSE 1015,3 10 -
18.03.2019 00:00:00 12,8 10,7 18 10 SSE 1016,0 10 -
17.03.2019 23:00:00 12,8 10,2 16 9 S 1016,3 10 -
17.03.2019 22:00:00 12,8 10,5 15 8 SSE 1016,3 10 -
17.03.2019 21:00:00 13,0 10,4 18 10 SSE 1016,3 10 -
17.03.2019 20:00:00 13,0 10,5 15 8 ESE 1016,7 10 -
17.03.2019 19:00:00 13,0 10,5 15 8 S 1016,8 10 -
17.03.2019 18:00:00 13,4 10,9 18 10 S 1017,5 10 12
17.03.2019 17:00:00 14,0 11,2 18 10 S 1017,5 10 0
17.03.2019 16:00:00 14,0 11,2 18 10 S 1017,5 10 12
17.03.2019 15:00:00 14,0 11,2 18 10 S 1017,6 10 36
17.03.2019 14:00:00 14,0 11,2 16 9 S 1017,7 10 30
17.03.2019 13:00:00 13,6 10,8 16 9 S 1018,8 10 0
17.03.2019 12:00:00 13,6 10,8 16 9 S 1019,0 10 0
17.03.2019 11:00:00 13,6 10,8 16 9 SSE 1018,8 10 0
17.03.2019 10:00:00 13,2 10,4 16 9 S 1018,2 10 0

tt = temperature
td = dewpoint
ff = wind speed
dd = wind direction
ppp = reduced air pressure
vv = visibility
sd = sunshine duration

Next stations